Weather History for Richlands, VA

Change the Weather History Date:

Monday, May 26, 2014

  Actual Average (KBLF) Record (KBLF)
Temperature  
Mean Temperature 69 °F 65 °F  
Max Temperature 79 °F 74 °F 86 °F (1991)
Min Temperature 59 °F 56 °F 35 °F (1961)
Degree Days  
Heating Degree Days 0 3  
Month to date heating degree days 124  
Since 1 July heating degree days 4554  
Cooling Degree Days 4 3  
Month to date cooling degree days 47  
Year to date cooling degree days 75  
Growing Degree Days 19 (Base 50)    
Moisture  
Dew Point 57 °F    
Average Humidity 63    
Maximum Humidity 79    
Minimum Humidity 51    
Precipitation  
Precipitation 0.00 in 0.15 in 0.89 in (2004)
Month to date precipitation 3.55  
Year to date precipitation 16.06  
Snow  
Snow 0.00 in - - ()
Month to date snowfall  
Since 1 July snowfall  
Snow Depth -    
Sea Level Pressure  
Sea Level Pressure 30.21 in    
Wind  
Wind Speed 3 mph (WSW)    
Max Wind Speed 9 mph    
Max Gust Speed -    
Visibility 10 miles    
Events      
T = Trace of Precipitation, MM = Missing Value Source: NWS Daily Summary

Daily Weather History Graph

Daily Weather History Graph

Search for Another Location

Airport:

Trip Planner

Search our weather history database for the weather conditions in past years. The results will help you decide how hot, cold, wet, or windy it might be!

Date:

Astronomy

May. 26, 2014 Rise Set
Actual Time 6:11 AM EDT 8:37 PM EDT
Civil Twilight 5:41 AM EDT 9:07 PM EDT
Nautical Twilight 5:04 AM EDT 9:44 PM EDT
Astronomical Twilight 4:24 AM EDT 10:25 PM EDT
Moon 4:49 AM EDT (5/26) 6:41 PM EDT (5/26)
Length of Visible Light 15h 25m
Length of Day
14h 25m
Waning Crescent, 5% of the Moon is Illuminated
May 26
Waning Crescent
May 28
New
Jun 5
First Quarter
Jun 13
Full
Jun 19
Last Quarter

Hourly Weather History & Observations

Time (EDT) Temp. Dew Point Humidity Pressure Visibility Wind Dir Wind Speed Gust Speed Precip Events Conditions
12:15 AM 66.2 °F 50.4 °F 57% 30.21 in 10.0 mi SSE 4.6 mph - N/A   Clear
12:35 AM 66.2 °F 50.5 °F 57% 30.21 in 10.0 mi Calm Calm - N/A   Clear
12:55 AM 63.0 °F 51.1 °F 65% 30.22 in 10.0 mi Calm Calm - N/A   Clear
1:15 AM 64.4 °F 50.5 °F 61% 30.22 in 10.0 mi SSE 3.5 mph - N/A   Clear
1:35 AM 63.0 °F 50.9 °F 65% 30.21 in 10.0 mi SE 3.5 mph - N/A   Clear
1:55 AM 64.0 °F 50.4 °F 61% 30.21 in 10.0 mi SSE 4.6 mph - N/A   Clear
2:15 AM 63.9 °F 50.9 °F 63% 30.21 in 10.0 mi SSE 4.6 mph - N/A   Clear
2:35 AM 63.7 °F 51.4 °F 64% 30.21 in 10.0 mi SSE 3.5 mph - N/A   Clear
2:55 AM 61.7 °F 51.1 °F 68% 30.20 in 10.0 mi Calm Calm - N/A   Clear
3:15 AM 63.1 °F 51.8 °F 66% 30.20 in 10.0 mi Calm Calm - N/A   Clear
3:35 AM 61.3 °F 50.7 °F 68% 30.20 in 10.0 mi Calm Calm - N/A   Clear
3:55 AM 61.9 °F 51.1 °F 68% 30.20 in 10.0 mi Calm Calm - N/A   Clear
4:15 AM 61.2 °F 50.7 °F 69% 30.20 in 10.0 mi Calm Calm - N/A   Clear
4:35 AM 60.4 °F 50.7 °F 70% 30.20 in 10.0 mi Calm Calm - N/A   Clear
4:55 AM 60.6 °F 50.9 °F 70% 30.20 in 10.0 mi Calm Calm - N/A   Clear
5:15 AM 60.6 °F 51.6 °F 72% 30.21 in 10.0 mi Calm Calm - N/A   Clear
5:35 AM 60.4 °F 52.0 °F 74% 30.22 in 10.0 mi Calm Calm - N/A   Clear
5:55 AM 61.5 °F 52.5 °F 72% 30.22 in 10.0 mi Calm Calm - N/A   Clear
6:15 AM 60.8 °F 53.6 °F 77% 30.23 in 10.0 mi Calm Calm - N/A   Clear
6:35 AM 60.4 °F 53.2 °F 77% 30.23 in 10.0 mi Calm Calm - N/A   Clear
6:55 AM 59.4 °F 52.7 °F 79% 30.24 in 10.0 mi Calm Calm - N/A   Clear
7:15 AM 59.9 °F 52.9 °F 78% 30.24 in 10.0 mi Calm Calm - N/A   Clear
7:35 AM 61.3 °F 53.2 °F 75% 30.25 in 10.0 mi Calm Calm - N/A   Clear
7:55 AM 61.0 °F 54.0 °F 78% 30.25 in 10.0 mi Calm Calm - N/A   Clear
8:15 AM 64.9 °F 54.9 °F 70% 30.25 in 10.0 mi Calm Calm - N/A   Clear
8:35 AM 66.9 °F 57.4 °F 71% 30.25 in 10.0 mi Calm Calm - N/A   Clear
8:55 AM 67.3 °F 57.4 °F 70% 30.26 in 10.0 mi Calm Calm - N/A   Clear
9:15 AM 68.5 °F 57.6 °F 68% 30.26 in 10.0 mi SW 3.5 mph - N/A   Clear
9:35 AM 69.3 °F 58.5 °F 68% 30.26 in 10.0 mi SW 3.5 mph - N/A   Clear
9:55 AM 70.5 °F 59.2 °F 67% 30.26 in 10.0 mi Calm Calm - N/A   Clear
10:15 AM 71.4 °F 59.2 °F 65% 30.26 in 10.0 mi WSW 4.6 mph - N/A   Clear
10:35 AM 72.0 °F 59.7 °F 65% 30.26 in 10.0 mi WNW 4.6 mph - N/A   Clear
11:15 AM 74.5 °F 60.4 °F 61% 30.26 in 10.0 mi WSW 6.9 mph - N/A   Clear
11:35 AM 74.5 °F 60.3 °F 61% 30.26 in 10.0 mi WSW 4.6 mph - N/A   Clear
11:55 AM 75.7 °F 60.1 °F 58% 30.26 in 10.0 mi NW 3.5 mph - N/A   Scattered Clouds
12:15 PM 76.1 °F 60.4 °F 58% 30.26 in 10.0 mi WSW 8.1 mph - N/A   Scattered Clouds
12:35 PM 76.3 °F 60.3 °F 57% 30.25 in 10.0 mi SW 8.1 mph - N/A   Scattered Clouds
12:55 PM 77.2 °F 60.3 °F 56% 30.25 in 10.0 mi West 6.9 mph - N/A   Scattered Clouds
1:15 PM 77.4 °F 59.5 °F 54% 30.24 in 10.0 mi WNW 3.5 mph - N/A   Scattered Clouds
1:35 PM 78.8 °F 61.0 °F 54% 30.24 in 10.0 mi WNW 5.8 mph - N/A   Scattered Clouds
2:15 PM 78.8 °F 59.7 °F 52% 30.23 in 10.0 mi West 6.9 mph - N/A   Mostly Cloudy
2:35 PM 78.3 °F 59.5 °F 52% 30.23 in 10.0 mi WSW 4.6 mph - N/A   Overcast
2:55 PM 78.1 °F 60.1 °F 54% 30.22 in 10.0 mi WNW 3.5 mph - N/A   Overcast
3:15 PM 79.0 °F 60.6 °F 53% 30.21 in 10.0 mi North 3.5 mph - N/A   Overcast
3:35 PM 79.0 °F 60.8 °F 54% 30.21 in 10.0 mi West 8.1 mph - N/A   Mostly Cloudy
3:55 PM 79.9 °F 60.4 °F 51% 30.19 in 10.0 mi WSW 9.2 mph - N/A   Mostly Cloudy
4:15 PM 77.9 °F 59.7 °F 53% 30.19 in 10.0 mi West 5.8 mph - N/A   Mostly Cloudy
4:35 PM 78.6 °F 61.7 °F 56% 30.19 in 10.0 mi WNW 4.6 mph - N/A   Overcast
4:55 PM 79.3 °F 60.3 °F 52% 30.18 in 10.0 mi SSW 6.9 mph - N/A   Mostly Cloudy
5:15 PM 79.5 °F 60.4 °F 52% 30.18 in 10.0 mi West 8.1 mph - N/A   Scattered Clouds
5:35 PM 79.7 °F 61.2 °F 53% 30.18 in 10.0 mi WSW 6.9 mph - N/A   Scattered Clouds
5:55 PM 79.0 °F 60.6 °F 53% 30.17 in 10.0 mi WSW 9.2 mph - N/A   Scattered Clouds
6:15 PM 77.9 °F 58.8 °F 52% 30.17 in 10.0 mi West 4.6 mph - N/A   Scattered Clouds
6:35 PM 78.8 °F 60.1 °F 53% 30.17 in 10.0 mi WSW 5.8 mph - N/A   Scattered Clouds
6:55 PM 77.9 °F 60.3 °F 54% 30.17 in 10.0 mi WSW 4.6 mph - N/A   Clear
7:15 PM 77.4 °F 61.2 °F 57% 30.17 in 10.0 mi WSW 5.8 mph - N/A   Clear
7:35 PM 77.0 °F 61.2 °F 58% 30.17 in 10.0 mi SW 3.5 mph - N/A   Clear
7:55 PM 76.1 °F 61.0 °F 59% 30.17 in 10.0 mi SW 3.5 mph - N/A   Clear
8:15 PM 75.6 °F 59.9 °F 58% 30.17 in 10.0 mi WSW 4.6 mph - N/A   Clear
8:35 PM 75.0 °F 59.9 °F 59% 30.17 in 10.0 mi SW 3.5 mph - N/A   Clear
8:55 PM 74.8 °F 59.9 °F 60% 30.17 in 10.0 mi Calm Calm - N/A   Clear
9:15 PM 74.3 °F 60.3 °F 61% 30.17 in 10.0 mi Calm Calm - N/A   Clear
9:35 PM 73.8 °F 60.4 °F 63% 30.17 in 10.0 mi SSW 3.5 mph - N/A   Clear
9:55 PM 74.1 °F 60.3 °F 62% 30.17 in 10.0 mi Calm Calm - N/A   Clear
10:15 PM 72.1 °F 61.3 °F 69% 30.18 in 10.0 mi SSE 3.5 mph - N/A   Clear
10:35 PM 71.6 °F 61.0 °F 69% 30.19 in 10.0 mi South 5.8 mph - N/A   Clear
10:55 PM 70.9 °F 60.4 °F 69% 30.19 in 10.0 mi South 3.5 mph - N/A   Clear
11:15 PM 72.0 °F 60.3 °F 67% 30.19 in 10.0 mi SW 4.6 mph - N/A   Clear
11:35 PM 71.8 °F 60.3 °F 67% 30.19 in 10.0 mi WSW 8.1 mph - N/A   Clear
11:55 PM 71.8 °F 60.4 °F 67% 30.19 in 10.0 mi WSW 5.8 mph - N/A   Clear